Galesburg, IL

11:19 AM CST on February 19, 2017 (GMT -0600)
Galesburg Municipal

Weather History for KGBG - January, 2014

Change the Weather History Date:

Sunday, January 19, 2014

  Actual Average Record
Temperature  
Mean Temperature 26 °F -  
Max Temperature 41 °F 29 °F 61 °F (1952)
Min Temperature 10 °F 13 °F -21 °F (1985)
Degree Days  
Heating Degree Days 40    
Moisture  
Dew Point 23 °F    
Average Humidity 83    
Maximum Humidity 96    
Minimum Humidity 68    
Precipitation  
Precipitation 0.00 in - - ()
Sea Level Pressure  
Sea Level Pressure 29.77 in    
Wind  
Wind Speed 12 mph (SW)    
Max Wind Speed 23 mph    
Max Gust Speed 30 mph    
Visibility 10 miles    
Events      
Averages and records for this station are not official NWS values.
T = Trace of Precipitation, MM = Missing Value Source: NWS Daily Summary

Daily Weather History Graph

Daily Weather History Graph

Search for Another Location

Airport or City:

Trip Planner

Search our weather history database for the weather conditions in past years. The results will help you decide how hot, cold, wet, or windy it might be!

Date:

Astronomy

Jan. 19, 2014 Rise Set
Actual Time 7:22 AM CST 5:03 PM CST
Civil Twilight 6:52 AM CST 5:33 PM CST
Nautical Twilight 6:18 AM CST 6:06 PM CST
Astronomical Twilight 5:45 AM CST 6:39 PM CST
Moon 8:43 PM CST 8:50 AM CST
Length of Visible Light 10h 40m
Length of Day
9h 40m
Waning Gibbous, 89% of the Moon is Illuminated
Jan 19
Waning Gibbous
Jan 23
Last Quarter
Jan 30
New
Feb 6
First Quarter
Feb 14
Full

Hourly Weather History & Observations

Time (CST) Temp. Windchill Dew Point Humidity Pressure Visibility Wind Dir Wind Speed Gust Speed Precip Events Conditions
12:15 AM 10.4 °F -2.4 °F 9.5 °F 96% 29.95 in 10.0 mi West 9.2 mph - N/A   Clear
12:35 AM 10.4 °F -0.4 °F 9.5 °F 96% 29.95 in 10.0 mi West 6.9 mph - N/A   Clear
12:55 AM 11.3 °F 0.7 °F 10.4 °F 96% 29.94 in 10.0 mi WSW 6.9 mph - N/A   Clear
1:15 AM 12.2 °F 0.7 °F 10.9 °F 95% 29.94 in 10.0 mi WSW 8.1 mph - N/A   Clear
1:35 AM 11.7 °F -0.9 °F 10.4 °F 95% 29.95 in 10.0 mi WSW 9.2 mph - N/A   Clear
1:55 AM 12.2 °F 0.7 °F 10.4 °F 92% 29.95 in 10.0 mi WSW 8.1 mph - N/A   Clear
2:15 AM 12.2 °F -0.2 °F 10.4 °F 92% 29.96 in 10.0 mi West 9.2 mph - N/A   Clear
2:35 AM 12.9 °F -0.9 °F 11.1 °F 93% 29.95 in 10.0 mi WSW 11.5 mph - N/A   Clear
2:55 AM 13.3 °F 1.1 °F 11.3 °F 92% 29.94 in 10.0 mi WSW 9.2 mph - N/A   Clear
3:15 AM 14.0 °F 2.0 °F 12.0 °F 92% 29.93 in 10.0 mi WSW 9.2 mph - N/A   Clear
3:35 AM 14.0 °F 1.2 °F 12.2 °F 93% 29.93 in 10.0 mi WSW 10.4 mph - N/A   Clear
3:55 AM 14.0 °F 2.9 °F 12.2 °F 93% 29.93 in 10.0 mi SW 8.1 mph - N/A   Clear
4:15 AM 13.6 °F 2.5 °F 12.2 °F 94% 29.92 in 10.0 mi SW 8.1 mph - N/A   Clear
4:35 AM 14.5 °F 3.6 °F 13.1 °F 94% 29.91 in 10.0 mi SW 8.1 mph - N/A   Clear
4:55 AM 14.9 °F 2.3 °F 13.1 °F 93% 29.90 in 10.0 mi SSW 10.4 mph - N/A   Clear
5:15 AM 15.1 °F 1.8 °F 13.5 °F 93% 29.90 in 10.0 mi SSW 11.5 mph - N/A   Clear
5:35 AM 15.8 °F 2.7 °F 14.0 °F 93% 29.89 in 10.0 mi SW 11.5 mph - N/A   Clear
5:55 AM 16.7 °F 3.2 °F 14.7 °F 92% 29.89 in 10.0 mi SW 12.7 mph - N/A   Clear
6:15 AM 17.2 °F 4.5 °F 14.9 °F 91% 29.88 in 10.0 mi SSW 11.5 mph - N/A   Clear
6:35 AM 17.6 °F 5.0 °F 15.3 °F 91% 29.88 in 10.0 mi SW 11.5 mph - N/A   Clear
6:55 AM 17.6 °F 4.3 °F 15.3 °F 91% 29.88 in 10.0 mi SW 12.7 mph - N/A   Clear
7:15 AM 17.1 °F 2.0 °F 14.9 °F 91% 29.87 in 10.0 mi SW 16.1 mph - N/A   Clear
7:35 AM 16.7 °F 1.5 °F 14.7 °F 92% 29.86 in 10.0 mi SSW 16.1 mph - N/A   Clear
7:55 AM 17.6 °F 3.2 °F 15.1 °F 90% 29.86 in 10.0 mi SSW 15.0 mph 21.9 mph N/A   Clear
8:15 AM 18.1 °F 3.4 °F 15.4 °F 89% 29.86 in 10.0 mi SSW 16.1 mph - N/A   Clear
8:35 AM 19.0 °F 4.0 °F 16.2 °F 89% 29.85 in 10.0 mi SSW 17.3 mph 21.9 mph N/A   Clear
8:55 AM 20.3 °F 5.2 °F 17.2 °F 88% 29.84 in 10.0 mi SSW 18.4 mph 25.3 mph N/A   Clear
9:15 AM 21.4 °F 7.1 °F 18.1 °F 87% 29.83 in 10.0 mi SSW 17.3 mph 23.0 mph N/A   Clear
9:35 AM 23.0 °F 9.2 °F 19.4 °F 86% 29.83 in 10.0 mi SSW 17.3 mph 21.9 mph N/A   Clear
9:55 AM 24.4 °F 11.0 °F 20.3 °F 84% 29.83 in 10.0 mi SW 17.3 mph 24.2 mph N/A   Clear
10:15 AM 26.4 °F 14.0 °F 21.9 °F 83% 29.82 in 10.0 mi SW 16.1 mph 26.5 mph N/A   Clear
10:35 AM 27.7 °F 14.1 °F 23.0 °F 83% 29.81 in 10.0 mi SSW 20.7 mph 27.6 mph N/A   Clear
10:55 AM 28.9 °F 15.8 °F 24.1 °F 82% 29.79 in 10.0 mi SSW 20.7 mph 25.3 mph N/A   Clear
11:15 AM 29.8 °F 16.3 °F 24.8 °F 81% 29.77 in 10.0 mi SSW 23.0 mph 27.6 mph N/A   Clear
11:35 AM 31.1 °F 18.3 °F 25.5 °F 80% 29.76 in 10.0 mi SSW 21.9 mph 27.6 mph N/A   Clear
11:55 AM 31.8 °F 20.6 °F 26.2 °F 80% 29.74 in 10.0 mi SSW 17.3 mph 25.3 mph N/A   Clear
12:15 PM 33.1 °F 21.2 °F 27.3 °F 79% 29.71 in 10.0 mi SSW 20.7 mph 29.9 mph N/A   Clear
12:35 PM 34.0 °F 23.0 °F 28.0 °F 79% 29.70 in 10.0 mi SSW 18.4 mph 24.2 mph N/A   Clear
12:55 PM 35.4 °F 25.6 °F 28.8 °F 77% 29.69 in 10.0 mi SSW 16.1 mph 23.0 mph N/A   Clear
1:15 PM 36.5 °F 27.0 °F 29.5 °F 76% 29.68 in 10.0 mi SSW 16.1 mph - N/A   Clear
1:35 PM 37.6 °F 29.1 °F 30.2 °F 75% 29.67 in 10.0 mi SSW 13.8 mph 21.9 mph N/A   Clear
1:55 PM 37.6 °F 29.1 °F 30.2 °F 75% 29.68 in 10.0 mi SW 13.8 mph - N/A   Clear
2:15 PM 39.2 °F 31.6 °F 31.3 °F 73% 29.66 in 10.0 mi SSW 12.7 mph - N/A   Clear
2:35 PM 40.3 °F 31.9 °F 31.1 °F 70% 29.65 in 10.0 mi SW 16.1 mph - N/A   Clear
2:55 PM 40.3 °F 31.9 °F 31.6 °F 71% 29.64 in 10.0 mi SSW 16.1 mph - N/A   Clear
3:15 PM 40.6 °F 32.3 °F 32.0 °F 71% 29.64 in 10.0 mi SSW 16.1 mph 19.6 mph N/A   Clear
3:35 PM 40.6 °F 32.7 °F 32.0 °F 71% 29.64 in 10.0 mi SSW 15.0 mph 21.9 mph N/A   Clear
3:55 PM 40.3 °F 32.2 °F 32.0 °F 72% 29.63 in 10.0 mi SSW 15.0 mph - N/A   Clear
4:15 PM 40.1 °F 32.0 °F 32.0 °F 73% 29.63 in 10.0 mi SSW 15.0 mph 19.6 mph N/A   Clear
4:35 PM 39.7 °F 31.9 °F 32.0 °F 74% 29.62 in 10.0 mi SSW 13.8 mph - N/A   Clear
4:55 PM 39.6 °F 32.1 °F 32.0 °F 74% 29.62 in 10.0 mi SSW 12.7 mph 19.6 mph N/A   Clear
5:15 PM 39.2 °F 31.2 °F 31.8 °F 75% 29.62 in 10.0 mi SSW 13.8 mph - N/A   Clear
5:35 PM 39.4 °F 31.4 °F 31.6 °F 74% 29.62 in 10.0 mi SSW 13.8 mph - N/A   Clear
5:55 PM 38.8 °F 31.2 °F 31.6 °F 75% 29.62 in 10.0 mi SSW 12.7 mph - N/A   Clear
6:15 PM 38.5 °F 31.6 °F 31.8 °F 77% 29.63 in 10.0 mi SW 10.4 mph - N/A   Clear
6:55 PM 37.4 °F 29.8 °F 31.6 °F 80% 29.63 in 10.0 mi SSW 11.5 mph - N/A   Clear
7:15 PM 37.4 °F 29.3 °F 31.8 °F 80% 29.63 in 10.0 mi SW 12.7 mph - N/A   Clear
7:35 PM 38.3 °F 29.3 °F 32.0 °F 78% 29.62 in 10.0 mi SW 16.1 mph - N/A   Clear
7:55 PM 39.4 °F 31.1 °F 32.0 °F 75% 29.62 in 10.0 mi SW 15.0 mph - N/A   Clear
8:15 PM 40.1 °F 31.3 °F 32.0 °F 73% 29.62 in 10.0 mi SW 17.3 mph 23.0 mph N/A   Clear
8:35 PM 40.3 °F 32.2 °F 32.0 °F 72% 29.62 in 10.0 mi SW 15.0 mph - N/A   Clear
8:55 PM 39.7 °F 31.9 °F 32.0 °F 74% 29.63 in 10.0 mi WSW 13.8 mph 21.9 mph N/A   Clear
9:15 PM 41.0 °F 33.9 °F 31.6 °F 69% 29.64 in 10.0 mi WSW 12.7 mph 19.6 mph N/A   Clear
9:35 PM 41.5 °F 33.5 °F 31.6 °F 68% 29.64 in 10.0 mi West 16.1 mph 20.7 mph N/A   Clear
9:55 PM 40.6 °F 33.8 °F 31.8 °F 71% 29.65 in 10.0 mi West 11.5 mph - N/A   Clear
10:15 PM 38.7 °F 31.4 °F 31.8 °F 76% 29.66 in 10.0 mi West 11.5 mph - N/A   Clear
10:35 PM 38.3 °F 30.1 °F 32.0 °F 78% 29.67 in 10.0 mi West 13.8 mph - N/A   Clear
10:55 PM 38.5 °F 30.7 °F 32.0 °F 78% 29.68 in 10.0 mi West 12.7 mph - N/A   Clear
11:15 PM 36.9 °F 28.7 °F 32.0 °F 83% 29.69 in 10.0 mi WNW 12.7 mph - N/A   Clear
11:35 PM 36.5 °F 27.8 °F 32.0 °F 84% 29.69 in 10.0 mi WNW 13.8 mph - N/A   Clear
11:55 PM 36.7 °F 28.9 °F 32.0 °F 83% 29.70 in 10.0 mi WNW 11.5 mph 17.3 mph N/A   Clear